| time (UTC) | temp F | wind direction | speed MPH | gust MPH | rain 1hr in | rain 24hr in | rain mn in | humidity % | barometer mb |
| 20260505041742 | 53 | 0.0 | 0.0 | 0.00 | 0.00 | 0.00 | 48 | 1009.8 | |
| 20260505040742 | 54 | 0.0 | 0.0 | 0.00 | 0.00 | 0.00 | 48 | 1009.7 | |
| 20260505035742 | 54 | 0.0 | 0.0 | 0.00 | 0.00 | 0.00 | 48 | 1009.7 | |
| 20260505033516 | 54 | 0.0 | 0.0 | 0.00 | 0.00 | 0.00 | 48 | 1009.8 | |
| 20260505031252 | 53 | 0.0 | 0.0 | 0.00 | 0.00 | 0.00 | 49 | 1010.1 | |
| 20260505030252 | 54 | 0.0 | 0.0 | 0.00 | 0.00 | 0.00 | 48 | 1010.2 | |
| 20260505025253 | 54 | 0.0 | 0.0 | 0.00 | 0.00 | 0.00 | 48 | 1010.3 | |
| 20260505023026 | 55 | 0.0 | 0.0 | 0.00 | 0.00 | 0.00 | 47 | 1010.6 | |
| 20260505022026 | 55 | 0.0 | 0.0 | 0.00 | 0.00 | 0.00 | 46 | 1010.6 | |
| 20260505021027 | 56 | 0.0 | 0.0 | 0.00 | 0.00 | 0.00 | 45 | 1010.8 | |
| 20260505020026 | 56 | 0.0 | 0.0 | 0.00 | 0.00 | 0.00 | 45 | 1010.9 | |
| 20260505015027 | 56 | 0.0 | 0.0 | 0.00 | 0.00 | 0.00 | 45 | 1010.9 | |
| 20260505010316 | 56 | 0.0 | 0.0 | 0.00 | 0.00 | 0.00 | 43 | 1010.8 | |
| 20260505005316 | 57 | 0.0 | 0.0 | 0.00 | 0.00 | 0.00 | 43 | 1010.9 | |
| 20260505004316 | 57 | 0.0 | 0.0 | 0.00 | 0.00 | 0.00 | 43 | 1011.0 | |
| 20260505003316 | 57 | 0.0 | 0.0 | 0.00 | 0.00 | 0.00 | 42 | 1011.1 | |
| 20260505002316 | 58 | 0.0 | 0.0 | 0.00 | 0.00 | 0.00 | 42 | 1011.1 | |
| 20260505001316 | 58 | 0.0 | 0.0 | 0.00 | 0.00 | 0.00 | 42 | 1011.3 | |
| 20260505000316 | 58 | 0.0 | 0.0 | 0.00 | 0.00 | 0.00 | 41 | 1011.3 | |
| 20260504234052 | 59 | 0.0 | 0.0 | 0.00 | 0.00 | 0.00 | 41 | 1011.6 | |
| 20260504233052 | 59 | 0.0 | 0.0 | 0.00 | 0.00 | 0.00 | 40 | 1011.7 | |
| 20260504232052 | 59 | 0.0 | 0.0 | 0.00 | 0.00 | 0.00 | 40 | 1011.8 | |
| 20260504231052 | 59 | 0.0 | 0.0 | 0.00 | 0.00 | 0.00 | 40 | 1011.8 | |
| 20260504230052 | 60 | 0.0 | 0.0 | 0.00 | 0.00 | 0.00 | 40 | 1011.8 | |
| 20260504225053 | 60 | 0.0 | 0.0 | 0.00 | 0.00 | 0.00 | 39 | 1012.0 | |
| 20260504224052 | 60 | 0.0 | 0.0 | 0.00 | 0.00 | 0.00 | 39 | 1012.1 | |
| 20260504223052 | 60 | 0.0 | 0.0 | 0.00 | 0.00 | 0.00 | 39 | 1012.2 | |
| 20260504222053 | 60 | 0.0 | 0.0 | 0.00 | 0.00 | 0.00 | 39 | 1012.2 | |
| 20260504214605 | 61 | 0.0 | 0.0 | 0.00 | 0.00 | 0.00 | 38 | 1012.4 | |
| 20260504213605 | 62 | 0.0 | 0.0 | 0.00 | 0.00 | 0.00 | 38 | 1012.5 | |
| 20260504212605 | 62 | 0.0 | 0.0 | 0.00 | 0.00 | 0.00 | 38 | 1012.6 | |
| 20260504211605 | 62 | 0.0 | 0.0 | 0.00 | 0.00 | 0.00 | 38 | 1012.6 | |
| 20260504204118 | 63 | 0.0 | 0.0 | 0.00 | 0.00 | 0.00 | 38 | 1012.8 | |
| 20260504203118 | 63 | 0.0 | 0.0 | 0.00 | 0.00 | 0.00 | 39 | 1012.8 | |
| 20260504202118 | 63 | 0.0 | 0.0 | 0.00 | 0.00 | 0.00 | 38 | 1012.8 | |
| 20260504201118 | 63 | 0.0 | 0.0 | 0.00 | 0.00 | 0.00 | 38 | 1012.9 | |
| 20260504200118 | 63 | 0.0 | 0.0 | 0.00 | 0.00 | 0.00 | 38 | 1013.0 | |
| 20260504193854 | 64 | 0.0 | 0.0 | 0.00 | 0.00 | 0.00 | 38 | 1013.0 | |
| 20260504190408 | 64 | 0.0 | 0.0 | 0.00 | 0.00 | 0.00 | 39 | 1013.0 | |
| 20260504185407 | 64 | 0.0 | 0.0 | 0.00 | 0.00 | 0.00 | 39 | 1013.0 | |
| 20260504184407 | 65 | 0.0 | 0.0 | 0.00 | 0.00 | 0.00 | 38 | 1012.8 | |
| 20260504182144 | 65 | 0.0 | 0.0 | 0.00 | 0.00 | 0.00 | 38 | 1012.8 | |
| 20260504175919 | 67 | 0.0 | 0.0 | 0.00 | 0.00 | 0.00 | 34 | 1012.6 | |
| 20260504174919 | 67 | 0.0 | 0.0 | 0.00 | 0.00 | 0.00 | 34 | 1012.6 | |
| 20260504173920 | 67 | 0.0 | 0.0 | 0.00 | 0.00 | 0.00 | 35 | 1012.7 | |
| 20260504172921 | 67 | 0.0 | 0.0 | 0.00 | 0.00 | 0.00 | 36 | 1012.6 | |
| 20260504171920 | 68 | 0.0 | 0.0 | 0.00 | 0.00 | 0.00 | 37 | 1012.7 | |
| 20260504170920 | 68 | 0.0 | 0.0 | 0.00 | 0.00 | 0.00 | 36 | 1012.7 | |
| 20260504150207 | 71 | 0.0 | 0.0 | 0.00 | 0.00 | 0.00 | 39 | 1012.9 | |
| 20260504141207 | 71 | 0.0 | 0.0 | 0.00 | 0.00 | 0.00 | 39 | 1013.4 | |
| 20260504140206 | 70 | 0.0 | 0.0 | 0.00 | 0.00 | 0.00 | 38 | 1013.7 | |
| 20260504110232 | 63 | 0.0 | 0.0 | 0.00 | 0.00 | 0.00 | 48 | 1015.2 | |
| 20260504100231 | 62 | 0.0 | 0.0 | 0.00 | 0.00 | 0.00 | 49 | 1015.8 | |
| 20260504080744 | 58 | 0.0 | 0.0 | 0.00 | 0.00 | 0.00 | 55 | 1015.6 | |
| 20260504045032 | 50 | 0.0 | 0.0 | 0.00 | 0.00 | 0.00 | 59 | 1014.9 | |
| 20260504044032 | 50 | 0.0 | 0.0 | 0.00 | 0.00 | 0.00 | 59 | 1014.8 |